{"data":{"norad_id":67709,"epoch":"2026-05-24T21:20:58.695072Z","epoch_age_seconds":81221,"freshness":"FRESH","line1":"1 67709U 26025S   26144.88956823  .00024084  00000+0  74598-3 0  9993","line2":"2 67709  97.2841 256.5585 0001054  75.1351 285.0008 15.33443290 17690","mean_motion":15.3344329,"eccentricity":0.0001054,"inclination_deg":97.2841,"raan_deg":256.5585,"arg_perigee_deg":75.1351,"mean_anomaly_deg":285.0008,"bstar":0.00074598,"rev_number":1769,"period_min":93.906309375158,"perigee_km":464.82693781313,"apogee_km":466.26958666641,"semimajor_km":6843.6852622398,"source":"CELESTRAK","updated_at":"2026-05-25T13:38:21.682721Z"}}